| time (UTC) | temp F | wind direction | speed knots | gust knots | rain 1hr in | rain 24hr in | rain mn in | humidity % | barometer mb |
| 20260901151026 | 83 | 220 | 0.0 | 0.0 | 0.00 | 0.00 | 0.00 | 70 | 1016.5 |
| 20260901150820 | 83 | 136 | 0.0 | 0.0 | 0.00 | 0.00 | 0.00 | 72 | 1019.4 |
| 20260901150517 | 82 | 246 | 0.0 | 0.0 | 0.00 | 0.00 | 0.00 | 72 | 1016.6 |
| 20260901150319 | 82 | 246 | 0.0 | 0.0 | 0.00 | 0.00 | 0.00 | 73 | 1019.6 |
| 20260901150107 | 82 | 247 | 0.0 | 0.0 | 0.00 | 0.00 | 0.00 | 73 | 1016.6 |
| 20260901145851 | 82 | 188 | 0.0 | 0.0 | 0.00 | 0.00 | 0.00 | 73 | 1019.6 |
| 20260901145533 | 81 | 183 | 0.0 | 0.0 | 0.00 | 0.00 | 0.00 | 74 | 1016.7 |
| 20260901145330 | 82 | 168 | 0.0 | 0.0 | 0.00 | 0.00 | 0.00 | 74 | 1019.6 |
| 20260901145014 | 81 | 244 | 0.0 | 0.0 | 0.00 | 0.00 | 0.00 | 76 | 1016.8 |
| 20260901144829 | 81 | 243 | 0.0 | 0.0 | 0.00 | 0.00 | 0.00 | 76 | 1019.6 |
| 20260901144507 | 80 | 255 | 0.0 | 0.0 | 0.00 | 0.00 | 0.00 | 76 | 1016.7 |
| 20260901144326 | 81 | 259 | 0.0 | 0.0 | 0.00 | 0.00 | 0.00 | 76 | 1019.7 |
| 20260901144101 | 80 | 232 | 0.0 | 0.0 | 0.00 | 0.00 | 0.00 | 76 | 1016.8 |
| 20260901143844 | 80 | 267 | 0.0 | 0.0 | 0.00 | 0.00 | 0.00 | 77 | 1019.7 |
| 20260901143531 | 80 | 237 | 0.0 | 0.0 | 0.00 | 0.00 | 0.00 | 77 | 1016.8 |
| 20260901143322 | 80 | 239 | 0.0 | 0.0 | 0.00 | 0.00 | 0.00 | 77 | 1019.7 |
| 20260901143023 | 79 | 212 | 0.0 | 0.0 | 0.00 | 0.00 | 0.00 | 77 | 1016.7 |
| 20260901142819 | 80 | 212 | 0.0 | 0.0 | 0.00 | 0.00 | 0.00 | 77 | 1019.8 |
| 20260901142504 | 79 | 213 | 0.0 | 0.0 | 0.00 | 0.00 | 0.00 | 77 | 1016.8 |
| 20260901142316 | 79 | 213 | 0.0 | 0.0 | 0.00 | 0.00 | 0.00 | 78 | 1019.8 |
| 20260901142057 | 79 | 199 | 0.0 | 0.0 | 0.00 | 0.00 | 0.00 | 78 | 1016.9 |
| 20260901141853 | 79 | 241 | 0.0 | 0.0 | 0.00 | 0.00 | 0.00 | 79 | 1019.8 |
| 20260901141517 | 79 | 222 | 0.0 | 0.0 | 0.00 | 0.00 | 0.00 | 79 | 1016.9 |
| 20260901141351 | 79 | 222 | 0.0 | 0.0 | 0.00 | 0.00 | 0.00 | 79 | 1019.7 |
| 20260901141049 | 78 | 224 | 0.0 | 0.0 | 0.00 | 0.00 | 0.00 | 79 | 1016.9 |
| 20260901140829 | 79 | 224 | 0.0 | 0.0 | 0.00 | 0.00 | 0.00 | 79 | 1019.8 |
| 20260901140540 | 78 | 224 | 0.0 | 0.0 | 0.00 | 0.00 | 0.00 | 80 | 1017.0 |
| 20260901140326 | 78 | 224 | 0.0 | 0.0 | 0.00 | 0.00 | 0.00 | 80 | 1019.7 |
| 20260901140042 | 78 | 224 | 0.0 | 0.0 | 0.00 | 0.00 | 0.00 | 80 | 1016.8 |
| 20260901135822 | 78 | 261 | 0.0 | 0.0 | 0.00 | 0.00 | 0.00 | 81 | 1019.7 |
| 20260901135555 | 77 | 261 | 0.0 | 0.0 | 0.00 | 0.00 | 0.00 | 81 | 1016.8 |
| 20260901135339 | 78 | 261 | 0.0 | 0.0 | 0.00 | 0.00 | 0.00 | 81 | 1019.7 |
| 20260901135042 | 77 | 261 | 0.0 | 0.0 | 0.00 | 0.00 | 0.00 | 81 | 1016.7 |
| 20260901134831 | 77 | 261 | 0.0 | 0.0 | 0.00 | 0.00 | 0.00 | 81 | 1019.7 |
| 20260901134537 | 76 | 261 | 0.0 | 0.0 | 0.00 | 0.00 | 0.00 | 81 | 1016.7 |
| 20260901134329 | 77 | 261 | 0.0 | 0.0 | 0.00 | 0.00 | 0.00 | 82 | 1019.6 |
| 20260901134019 | 76 | 208 | 0.0 | 0.0 | 0.00 | 0.00 | 0.00 | 82 | 1016.7 |
| 20260901133844 | 76 | 208 | 0.0 | 0.0 | 0.00 | 0.00 | 0.00 | 82 | 1019.7 |
| 20260901133547 | 76 | 208 | 0.0 | 0.0 | 0.00 | 0.00 | 0.00 | 82 | 1016.6 |
| 20260901133323 | 76 | 208 | 0.0 | 0.0 | 0.00 | 0.00 | 0.00 | 83 | 1019.5 |
| 20260901133046 | 75 | 208 | 0.0 | 0.0 | 0.00 | 0.00 | 0.00 | 83 | 1016.6 |
| 20260901132820 | 75 | 208 | 0.0 | 0.0 | 0.00 | 0.00 | 0.00 | 83 | 1019.5 |
| 20260901132529 | 75 | 208 | 0.0 | 0.0 | 0.00 | 0.00 | 0.00 | 83 | 1016.7 |
| 20260901132317 | 75 | 208 | 0.0 | 0.0 | 0.00 | 0.00 | 0.00 | 83 | 1019.5 |
| 20260901132021 | 74 | 208 | 0.0 | 0.9 | 0.00 | 0.00 | 0.00 | 83 | 1016.7 |
| 20260901131814 | 74 | 208 | 0.0 | 0.9 | 0.00 | 0.00 | 0.00 | 83 | 1019.6 |
| 20260901131548 | 74 | 208 | 0.0 | 0.9 | 0.00 | 0.00 | 0.00 | 83 | 1016.7 |
| 20260901131330 | 74 | 208 | 0.0 | 0.9 | 0.00 | 0.00 | 0.00 | 83 | 1019.5 |
| 20260901131042 | 73 | 208 | 0.0 | 0.9 | 0.00 | 0.00 | 0.00 | 83 | 1016.6 |
| 20260901130828 | 74 | 208 | 0.0 | 0.9 | 0.00 | 0.00 | 0.00 | 83 | 1019.5 |
| 20260901130538 | 73 | 208 | 0.0 | 0.9 | 0.00 | 0.00 | 0.00 | 83 | 1016.5 |
| 20260901130325 | 73 | 208 | 0.0 | 0.0 | 0.00 | 0.00 | 0.00 | 83 | 1019.4 |
| 20260901130043 | 73 | 208 | 0.0 | 0.0 | 0.00 | 0.00 | 0.00 | 82 | 1016.4 |
| 20260901125825 | 73 | 208 | 0.0 | 0.0 | 0.00 | 0.00 | 0.00 | 82 | 1019.2 |
| 20260901125530 | 73 | 208 | 0.0 | 0.9 | 0.00 | 0.00 | 0.00 | 82 | 1016.4 |
| 20260901125321 | 73 | 208 | 0.0 | 0.9 | 0.00 | 0.00 | 0.00 | 82 | 1019.2 |
| 20260901125056 | 73 | 208 | 0.0 | 0.9 | 0.00 | 0.00 | 0.00 | 82 | 1016.2 |
| 20260901124819 | 73 | 208 | 0.0 | 0.9 | 0.00 | 0.00 | 0.00 | 82 | 1019.1 |
| 20260901124547 | 73 | 208 | 0.0 | 1.7 | 0.00 | 0.00 | 0.00 | 82 | 1016.2 |
| 20260901124317 | 73 | 208 | 0.0 | 1.7 | 0.00 | 0.00 | 0.00 | 82 | 1019.1 |
| 20260901124040 | 73 | 208 | 0.0 | 1.7 | 0.00 | 0.00 | 0.00 | 83 | 1016.2 |
| 20260901123816 | 73 | 208 | 0.9 | 1.7 | 0.00 | 0.00 | 0.00 | 83 | 1019.1 |
| 20260901123533 | 73 | 208 | 0.0 | 1.7 | 0.00 | 0.00 | 0.00 | 83 | 1016.2 |
| 20260901123318 | 73 | 208 | 0.0 | 1.7 | 0.00 | 0.00 | 0.00 | 83 | 1019.2 |
| 20260901123027 | 73 | 208 | 0.0 | 1.7 | 0.00 | 0.00 | 0.00 | 82 | 1016.2 |
| 20260901122815 | 73 | 208 | 0.0 | 1.7 | 0.00 | 0.00 | 0.00 | 82 | 1019.0 |
| 20260901122511 | 73 | 208 | 0.0 | 0.9 | 0.00 | 0.00 | 0.00 | 82 | 1016.0 |
| 20260901122332 | 73 | 208 | 0.0 | 0.9 | 0.00 | 0.00 | 0.00 | 82 | 1018.9 |
| 20260901122007 | 73 | 208 | 0.0 | 0.0 | 0.00 | 0.00 | 0.00 | 82 | 1015.8 |
| 20260901121846 | 73 | 208 | 0.0 | 0.0 | 0.00 | 0.00 | 0.00 | 82 | 1018.7 |
| 20260901121537 | 73 | 208 | 0.0 | 1.7 | 0.00 | 0.00 | 0.00 | 81 | 1015.8 |
| 20260901121324 | 73 | 208 | 0.0 | 1.7 | 0.00 | 0.00 | 0.00 | 81 | 1018.7 |
| 20260901121031 | 73 | 208 | 0.0 | 1.7 | 0.00 | 0.00 | 0.00 | 81 | 1015.7 |
| 20260901120823 | 73 | 208 | 0.9 | 1.7 | 0.00 | 0.00 | 0.00 | 81 | 1018.7 |
| 20260901120525 | 73 | 208 | 0.0 | 1.7 | 0.00 | 0.00 | 0.00 | 81 | 1015.8 |
| 20260901120340 | 73 | 208 | 0.9 | 1.7 | 0.00 | 0.00 | 0.00 | 81 | 1018.8 |
| 20260901120055 | 73 | 208 | 0.9 | 1.7 | 0.00 | 0.00 | 0.00 | 81 | 1015.8 |
| 20260901115817 | 73 | 208 | 0.9 | 1.7 | 0.00 | 0.00 | 0.00 | 80 | 1018.8 |
| 20260901115540 | 73 | 208 | 0.0 | 1.7 | 0.00 | 0.00 | 0.00 | 80 | 1015.8 |
| 20260901115313 | 74 | 208 | 0.9 | 1.7 | 0.00 | 0.00 | 0.00 | 80 | 1018.6 |
| 20260901115035 | 73 | 208 | 0.9 | 1.7 | 0.00 | 0.00 | 0.00 | 80 | 1015.7 |
| 20260901114850 | 74 | 208 | 0.0 | 0.9 | 0.00 | 0.00 | 0.00 | 80 | 1018.6 |
| 20260901114601 | 73 | 208 | 0.0 | 0.0 | 0.00 | 0.00 | 0.00 | 80 | 1015.7 |
| 20260901114329 | 74 | 208 | 0.0 | 0.0 | 0.00 | 0.00 | 0.00 | 81 | 1018.6 |
| 20260901114050 | 73 | 208 | 0.0 | 0.0 | 0.00 | 0.00 | 0.00 | 80 | 1015.7 |
| 20260901113829 | 74 | 208 | 0.0 | 0.0 | 0.00 | 0.00 | 0.00 | 80 | 1018.7 |
| 20260901113541 | 74 | 208 | 0.0 | 1.7 | 0.00 | 0.00 | 0.00 | 79 | 1015.6 |
| 20260901113329 | 74 | 208 | 0.0 | 1.7 | 0.00 | 0.00 | 0.00 | 79 | 1018.7 |
| 20260901113033 | 74 | 208 | 0.0 | 1.7 | 0.00 | 0.00 | 0.00 | 80 | 1015.7 |
| 20260901112826 | 74 | 208 | 0.9 | 1.7 | 0.00 | 0.00 | 0.00 | 80 | 1018.6 |
| 20260901112556 | 74 | 208 | 0.0 | 1.7 | 0.00 | 0.00 | 0.00 | 80 | 1015.7 |
| 20260901112325 | 75 | 208 | 0.9 | 1.7 | 0.00 | 0.00 | 0.00 | 80 | 1018.7 |
| 20260901112048 | 74 | 208 | 0.0 | 1.7 | 0.00 | 0.00 | 0.00 | 80 | 1015.7 |
| 20260901111823 | 75 | 208 | 0.0 | 1.7 | 0.00 | 0.00 | 0.00 | 79 | 1018.6 |
| 20260901111546 | 74 | 208 | 0.0 | 1.7 | 0.00 | 0.00 | 0.00 | 79 | 1015.6 |
| 20260901111321 | 75 | 208 | 0.0 | 1.7 | 0.00 | 0.00 | 0.00 | 80 | 1018.5 |
| 20260901111035 | 74 | 208 | 0.0 | 1.7 | 0.00 | 0.00 | 0.00 | 80 | 1015.7 |
| 20260901110820 | 75 | 208 | 0.9 | 1.7 | 0.00 | 0.00 | 0.00 | 80 | 1018.6 |
| 20260901110526 | 74 | 208 | 0.0 | 1.7 | 0.00 | 0.00 | 0.00 | 79 | 1015.6 |
| 20260901110317 | 75 | 208 | 0.9 | 1.7 | 0.00 | 0.00 | 0.00 | 79 | 1018.5 |
| 20260901110019 | 75 | 208 | 0.0 | 1.7 | 0.00 | 0.00 | 0.00 | 79 | 1015.6 |
| 20260901105815 | 75 | 208 | 0.0 | 1.7 | 0.00 | 0.00 | 0.00 | 79 | 1018.6 |
| 20260901105505 | 75 | 208 | 0.0 | 1.7 | 0.00 | 0.00 | 0.00 | 79 | 1015.6 |
| 20260901105314 | 75 | 208 | 0.9 | 1.7 | 0.00 | 0.00 | 0.00 | 79 | 1018.6 |
| 20260901105101 | 75 | 208 | 0.9 | 1.7 | 0.00 | 0.00 | 0.00 | 79 | 1015.7 |
| 20260901104831 | 75 | 208 | 0.9 | 1.7 | 0.00 | 0.00 | 0.00 | 78 | 1018.6 |
| 20260901104554 | 75 | 208 | 0.9 | 1.7 | 0.00 | 0.00 | 0.00 | 78 | 1015.7 |
| 20260901104327 | 75 | 208 | 0.9 | 1.7 | 0.00 | 0.00 | 0.00 | 78 | 1018.7 |
| 20260901104041 | 75 | 208 | 0.9 | 2.6 | 0.00 | 0.00 | 0.00 | 78 | 1015.7 |
| 20260901103823 | 76 | 208 | 0.9 | 2.6 | 0.00 | 0.00 | 0.00 | 78 | 1018.7 |
| 20260901103506 | 75 | 208 | 0.9 | 2.6 | 0.00 | 0.00 | 0.00 | 77 | 1015.6 |
| 20260901103340 | 76 | 208 | 1.7 | 2.6 | 0.00 | 0.00 | 0.00 | 77 | 1018.5 |
| 20260901103037 | 76 | 208 | 1.7 | 2.6 | 0.00 | 0.00 | 0.00 | 77 | 1015.5 |
| 20260901102816 | 76 | 208 | 2.6 | 2.6 | 0.00 | 0.00 | 0.00 | 77 | 1018.4 |
| 20260901102530 | 76 | 208 | 0.0 | 1.7 | 0.00 | 0.00 | 0.00 | 77 | 1015.4 |
| 20260901102333 | 77 | 208 | 0.0 | 1.7 | 0.00 | 0.00 | 0.00 | 76 | 1018.3 |
| 20260901102011 | 76 | 208 | 0.0 | 5.2 | 0.00 | 0.00 | 0.00 | 76 | 1015.3 |
| 20260901101830 | 77 | 208 | 0.9 | 5.2 | 0.00 | 0.00 | 0.00 | 76 | 1018.3 |
| 20260901101502 | 76 | 208 | 0.9 | 5.2 | 0.00 | 0.00 | 0.00 | 76 | 1015.3 |
| 20260901101326 | 77 | 208 | 2.6 | 5.2 | 0.00 | 0.00 | 0.00 | 76 | 1018.3 |
| 20260901101058 | 76 | 210 | 1.7 | 4.3 | 0.00 | 0.00 | 0.00 | 76 | 1015.4 |
| 20260901100823 | 77 | 217 | 2.6 | 4.3 | 0.00 | 0.00 | 0.00 | 76 | 1018.4 |
| 20260901100548 | 76 | 216 | 2.6 | 4.3 | 0.00 | 0.00 | 0.00 | 76 | 1015.4 |
| 20260901100321 | 77 | 223 | 2.6 | 5.2 | 0.00 | 0.00 | 0.00 | 76 | 1018.3 |
| 20260901100043 | 76 | 219 | 2.6 | 5.2 | 0.00 | 0.00 | 0.00 | 76 | 1015.4 |
| 20260901095838 | 77 | 216 | 2.6 | 5.2 | 0.00 | 0.00 | 0.00 | 76 | 1018.4 |
| 20260901095513 | 77 | 214 | 2.6 | 4.3 | 0.00 | 0.00 | 0.00 | 76 | 1015.5 |
| 20260901095314 | 77 | 207 | 3.5 | 4.3 | 0.00 | 0.00 | 0.00 | 75 | 1018.4 |
| 20260901095058 | 77 | 220 | 1.7 | 4.3 | 0.00 | 0.00 | 0.00 | 75 | 1015.4 |
| 20260901094833 | 77 | 218 | 2.6 | 4.3 | 0.00 | 0.00 | 0.00 | 75 | 1018.2 |
| 20260901094551 | 77 | 218 | 2.6 | 5.2 | 0.00 | 0.00 | 0.00 | 75 | 1015.2 |
| 20260901094330 | 77 | 213 | 2.6 | 5.2 | 0.00 | 0.00 | 0.00 | 75 | 1018.3 |
| 20260901094041 | 77 | 182 | 2.6 | 5.2 | 0.00 | 0.00 | 0.00 | 75 | 1015.4 |
| 20260901093829 | 77 | 187 | 2.6 | 3.5 | 0.00 | 0.00 | 0.00 | 75 | 1018.3 |
| 20260901093537 | 77 | 187 | 1.7 | 3.5 | 0.00 | 0.00 | 0.00 | 75 | 1015.4 |
| 20260901093327 | 78 | 187 | 2.6 | 4.3 | 0.00 | 0.00 | 0.00 | 75 | 1018.4 |
| 20260901093022 | 77 | 187 | 1.7 | 5.2 | 0.00 | 0.00 | 0.00 | 75 | 1015.4 |
| 20260901092825 | 78 | 187 | 2.6 | 5.2 | 0.00 | 0.00 | 0.00 | 75 | 1018.5 |
| 20260901092502 | 77 | 187 | 2.6 | 5.2 | 0.00 | 0.00 | 0.00 | 75 | 1015.6 |
| 20260901092322 | 78 | 186 | 2.6 | 4.3 | 0.00 | 0.00 | 0.00 | 75 | 1018.5 |
| 20260901092059 | 78 | 186 | 2.6 | 4.3 | 0.00 | 0.00 | 0.00 | 75 | 1015.6 |
| 20260901091821 | 78 | 186 | 2.6 | 4.3 | 0.00 | 0.00 | 0.00 | 75 | 1018.6 |
| 20260901091547 | 78 | 186 | 2.6 | 4.3 | 0.00 | 0.00 | 0.00 | 75 | 1015.6 |
| 20260901091319 | 78 | 186 | 2.6 | 4.3 | 0.00 | 0.00 | 0.00 | 75 | 1018.6 |
| 20260901091036 | 78 | 183 | 1.7 | 4.3 | 0.00 | 0.00 | 0.00 | 74 | 1015.6 |
| 20260901090816 | 78 | 186 | 2.6 | 4.3 | 0.00 | 0.00 | 0.00 | 74 | 1018.5 |
| 20260901090528 | 78 | 189 | 2.6 | 4.3 | 0.00 | 0.00 | 0.00 | 74 | 1015.6 |
| 20260901090314 | 79 | 191 | 1.7 | 5.2 | 0.00 | 0.00 | 0.00 | 74 | 1018.7 |
| 20260901090012 | 78 | 167 | 2.6 | 5.2 | 0.00 | 0.00 | 0.00 | 74 | 1015.7 |
| 20260901085831 | 79 | 191 | 2.6 | 5.2 | 0.00 | 0.00 | 0.00 | 74 | 1018.7 |
| 20260901085503 | 78 | 191 | 3.5 | 5.2 | 0.00 | 0.00 | 0.00 | 74 | 1015.7 |
| 20260901085348 | 79 | 191 | 2.6 | 5.2 | 0.00 | 0.00 | 0.00 | 74 | 1018.7 |
| 20260901085034 | 78 | 209 | 2.6 | 5.2 | 0.00 | 0.00 | 0.00 | 74 | 1015.7 |
| 20260901084825 | 79 | 195 | 3.5 | 7.0 | 0.00 | 0.00 | 0.00 | 74 | 1018.6 |
| 20260901084524 | 79 | 194 | 1.7 | 7.0 | 0.00 | 0.00 | 0.00 | 74 | 1015.7 |
| 20260901084323 | 79 | 208 | 2.6 | 7.0 | 0.00 | 0.00 | 0.00 | 74 | 1018.7 |
| 20260901084006 | 79 | 204 | 1.7 | 4.3 | 0.00 | 0.00 | 0.00 | 74 | 1015.8 |
| 20260901083822 | 79 | 204 | 2.6 | 5.2 | 0.00 | 0.00 | 0.00 | 74 | 1018.7 |
| 20260901083600 | 79 | 178 | 1.7 | 5.2 | 0.00 | 0.00 | 0.00 | 74 | 1015.7 |
| 20260901083321 | 79 | 174 | 1.7 | 5.2 | 0.00 | 0.00 | 0.00 | 74 | 1018.6 |
| 20260901083051 | 79 | 174 | 2.6 | 5.2 | 0.00 | 0.00 | 0.00 | 74 | 1015.7 |
| 20260901082818 | 79 | 183 | 2.6 | 5.2 | 0.00 | 0.00 | 0.00 | 74 | 1018.6 |
| 20260901082542 | 79 | 192 | 2.6 | 5.2 | 0.00 | 0.00 | 0.00 | 74 | 1015.6 |
| 20260901082315 | 80 | 193 | 2.6 | 5.2 | 0.00 | 0.00 | 0.00 | 74 | 1018.5 |
| 20260901082035 | 79 | 193 | 2.6 | 5.2 | 0.00 | 0.00 | 0.00 | 74 | 1015.5 |
| 20260901081814 | 80 | 193 | 2.6 | 5.2 | 0.00 | 0.00 | 0.00 | 74 | 1018.5 |
| 20260901081516 | 79 | 193 | 1.7 | 5.2 | 0.00 | 0.00 | 0.00 | 73 | 1015.4 |
| 20260901081329 | 80 | 193 | 2.6 | 5.2 | 0.00 | 0.00 | 0.00 | 73 | 1018.4 |
| 20260901081006 | 79 | 193 | 2.6 | 6.1 | 0.00 | 0.00 | 0.00 | 73 | 1015.4 |
| 20260901080826 | 80 | 179 | 2.6 | 6.1 | 0.00 | 0.00 | 0.00 | 73 | 1018.3 |
| 20260901080601 | 80 | 205 | 2.6 | 6.1 | 0.00 | 0.00 | 0.00 | 73 | 1015.3 |
| 20260901080324 | 80 | 196 | 3.5 | 6.1 | 0.00 | 0.00 | 0.00 | 73 | 1018.3 |
| 20260901080052 | 80 | 195 | 2.6 | 8.7 | 0.00 | 0.00 | 0.00 | 73 | 1015.3 |
| 20260901075821 | 80 | 195 | 2.6 | 8.7 | 0.00 | 0.00 | 0.00 | 73 | 1018.2 |
| 20260901075545 | 80 | 181 | 3.5 | 8.7 | 0.00 | 0.00 | 0.00 | 73 | 1015.3 |
| 20260901075318 | 80 | 183 | 5.2 | 8.7 | 0.00 | 0.00 | 0.00 | 73 | 1018.2 |
| 20260901075036 | 80 | 177 | 4.3 | 8.7 | 0.00 | 0.00 | 0.00 | 73 | 1015.3 |
| 20260901074816 | 81 | 185 | 5.2 | 8.7 | 0.00 | 0.00 | 0.00 | 73 | 1018.2 |
| 20260901074518 | 80 | 172 | 4.3 | 7.8 | 0.00 | 0.00 | 0.00 | 72 | 1015.2 |
| 20260901074353 | 81 | 204 | 5.2 | 7.8 | 0.00 | 0.00 | 0.00 | 72 | 1018.1 |
| 20260901074054 | 80 | 242 | 4.3 | 7.8 | 0.00 | 0.00 | 0.00 | 72 | 1015.1 |
| 20260901073829 | 81 | 181 | 4.3 | 7.8 | 0.00 | 0.00 | 0.00 | 72 | 1018.1 |
| 20260901073540 | 80 | 199 | 4.3 | 9.6 | 0.00 | 0.00 | 0.00 | 72 | 1015.3 |
| 20260901073346 | 81 | 179 | 4.3 | 9.6 | 0.00 | 0.00 | 0.00 | 72 | 1018.2 |
| 20260901073003 | 81 | 201 | 5.2 | 10.4 | 0.00 | 0.00 | 0.00 | 72 | 1015.2 |
| 20260901072822 | 81 | 183 | 5.2 | 9.6 | 0.00 | 0.00 | 0.00 | 72 | 1018.1 |
| 20260901072556 | 81 | 195 | 5.2 | 9.6 | 0.00 | 0.00 | 0.00 | 71 | 1015.1 |
| 20260901072340 | 81 | 202 | 6.1 | 9.6 | 0.00 | 0.00 | 0.00 | 71 | 1018.1 |
| 20260901072045 | 81 | 201 | 6.1 | 10.4 | 0.00 | 0.00 | 0.00 | 71 | 1015.2 |
| 20260901071831 | 81 | 171 | 7.0 | 10.4 | 0.00 | 0.00 | 0.00 | 71 | 1018.3 |
| 20260901071534 | 81 | 193 | 4.3 | 9.6 | 0.00 | 0.00 | 0.00 | 71 | 1015.3 |
| 20260901071351 | 81 | 204 | 6.1 | 9.6 | 0.00 | 0.00 | 0.00 | 71 | 1018.2 |
| 20260901071056 | 81 | 197 | 5.2 | 11.3 | 0.00 | 0.00 | 0.00 | 71 | 1015.3 |
| 20260901070827 | 81 | 181 | 6.1 | 11.3 | 0.00 | 0.00 | 0.00 | 71 | 1018.2 |
| 20260901070553 | 81 | 187 | 6.1 | 11.3 | 0.00 | 0.00 | 0.00 | 71 | 1015.3 |
| 20260901070325 | 81 | 179 | 5.2 | 8.7 | 0.00 | 0.00 | 0.00 | 71 | 1018.2 |
| 20260901070050 | 81 | 166 | 5.2 | 8.7 | 0.00 | 0.00 | 0.00 | 71 | 1015.3 |
| 20260901065823 | 81 | 202 | 5.2 | 8.7 | 0.00 | 0.00 | 0.00 | 71 | 1018.2 |
| 20260901065546 | 81 | 231 | 3.5 | 8.7 | 0.00 | 0.00 | 0.00 | 70 | 1015.2 |
| 20260901065321 | 81 | 166 | 6.1 | 8.7 | 0.00 | 0.00 | 0.00 | 70 | 1018.2 |
| 20260901065040 | 81 | 194 | 5.2 | 7.8 | 0.00 | 0.00 | 0.00 | 70 | 1015.3 |
| 20260901064840 | 81 | 198 | 5.2 | 7.8 | 0.00 | 0.00 | 0.00 | 70 | 1018.3 |
| 20260901064532 | 81 | 186 | 3.5 | 8.7 | 0.00 | 0.00 | 0.00 | 70 | 1015.3 |
| 20260901064331 | 81 | 187 | 4.3 | 8.7 | 0.00 | 0.00 | 0.00 | 70 | 1018.1 |
| 20260901064016 | 81 | 197 | 3.5 | 8.7 | 0.00 | 0.00 | 0.00 | 69 | 1015.2 |
| 20260901063830 | 81 | 168 | 3.5 | 8.7 | 0.00 | 0.00 | 0.00 | 69 | 1018.2 |
| 20260901063511 | 81 | 200 | 2.6 | 7.8 | 0.00 | 0.00 | 0.00 | 69 | 1015.2 |
| 20260901063327 | 81 | 172 | 3.5 | 7.8 | 0.00 | 0.00 | 0.00 | 69 | 1018.2 |
| 20260901063104 | 81 | 179 | 4.3 | 7.0 | 0.00 | 0.00 | 0.00 | 69 | 1015.2 |
| 20260901062823 | 81 | 161 | 4.3 | 8.7 | 0.00 | 0.00 | 0.00 | 68 | 1018.1 |
| 20260901062537 | 81 | 157 | 4.3 | 8.7 | 0.00 | 0.00 | 0.00 | 68 | 1015.1 |
| 20260901062321 | 81 | 157 | 5.2 | 8.7 | 0.00 | 0.00 | 0.00 | 68 | 1018.1 |
| 20260901062028 | 81 | 174 | 6.1 | 8.7 | 0.00 | 0.00 | 0.00 | 67 | 1015.1 |
| 20260901061817 | 81 | 156 | 5.2 | 9.6 | 0.00 | 0.00 | 0.00 | 67 | 1018.1 |
| 20260901061522 | 81 | 170 | 4.3 | 7.8 | 0.00 | 0.00 | 0.00 | 66 | 1015.1 |
| 20260901061337 | 81 | 188 | 5.2 | 7.8 | 0.00 | 0.00 | 0.00 | 66 | 1018.1 |
| 20260901061013 | 81 | 161 | 4.3 | 7.8 | 0.00 | 0.00 | 0.00 | 66 | 1015.1 |
| 20260901060830 | 81 | 186 | 5.2 | 7.8 | 0.00 | 0.00 | 0.00 | 66 | 1018.1 |
| 20260901060556 | 81 | 184 | 4.3 | 7.8 | 0.00 | 0.00 | 0.00 | 65 | 1015.0 |
| 20260901060327 | 81 | 185 | 4.3 | 7.8 | 0.00 | 0.00 | 0.00 | 65 | 1018.0 |
| 20260901060050 | 81 | 193 | 4.3 | 7.8 | 0.00 | 0.00 | 0.00 | 65 | 1014.9 |
| 20260901055822 | 81 | 170 | 4.3 | 8.7 | 0.00 | 0.00 | 0.00 | 64 | 1017.8 |
| 20260901055526 | 81 | 191 | 6.1 | 8.7 | 0.00 | 0.00 | 0.00 | 64 | 1014.9 |
| 20260901055320 | 81 | 152 | 6.1 | 8.7 | 0.00 | 0.00 | 0.00 | 64 | 1017.9 |
| 20260901055020 | 81 | 166 | 6.1 | 8.7 | 0.00 | 0.00 | 0.00 | 64 | 1014.9 |
| 20260901054818 | 81 | 179 | 6.1 | 7.8 | 0.00 | 0.00 | 0.00 | 63 | 1017.9 |
| 20260901054510 | 81 | 166 | 4.3 | 8.7 | 0.00 | 0.00 | 0.00 | 63 | 1014.8 |
| 20260901054336 | 81 | 169 | 5.2 | 8.7 | 0.00 | 0.00 | 0.00 | 62 | 1017.8 |
| 20260901054038 | 81 | 162 | 5.2 | 8.7 | 0.00 | 0.00 | 0.00 | 62 | 1015.0 |
| 20260901053814 | 81 | 156 | 4.3 | 7.8 | 0.00 | 0.00 | 0.00 | 62 | 1017.9 |
| 20260901053530 | 81 | 158 | 5.2 | 7.8 | 0.00 | 0.00 | 0.00 | 62 | 1015.0 |
| 20260901053331 | 81 | 139 | 5.2 | 7.8 | 0.00 | 0.00 | 0.00 | 61 | 1017.9 |
| 20260901053013 | 81 | 141 | 4.3 | 7.8 | 0.00 | 0.00 | 0.00 | 61 | 1015.0 |
| 20260901052850 | 81 | 173 | 5.2 | 7.8 | 0.00 | 0.00 | 0.00 | 61 | 1017.9 |
| 20260901052545 | 81 | 149 | 5.2 | 7.0 | 0.00 | 0.00 | 0.00 | 61 | 1014.9 |
| 20260901052326 | 81 | 162 | 5.2 | 6.1 | 0.00 | 0.00 | 0.00 | 61 | 1017.8 |
| 20260901052040 | 81 | 168 | 3.5 | 7.8 | 0.00 | 0.00 | 0.00 | 61 | 1014.9 |
| 20260901051824 | 81 | 158 | 4.3 | 7.8 | 0.00 | 0.00 | 0.00 | 61 | 1017.7 |
| 20260901051538 | 81 | 169 | 1.7 | 7.8 | 0.00 | 0.00 | 0.00 | 61 | 1014.9 |
| 20260901051322 | 81 | 187 | 4.3 | 7.8 | 0.00 | 0.00 | 0.00 | 61 | 1017.7 |
| 20260901051025 | 80 | 158 | 4.3 | 7.8 | 0.00 | 0.00 | 0.00 | 61 | 1014.7 |
| 20260901050820 | 81 | 157 | 3.5 | 6.1 | 0.00 | 0.00 | 0.00 | 61 | 1017.6 |
| 20260901050517 | 80 | 188 | 3.5 | 7.0 | 0.00 | 0.00 | 0.00 | 61 | 1014.8 |
| 20260901050337 | 81 | 172 | 4.3 | 7.0 | 0.00 | 0.00 | 0.00 | 61 | 1017.7 |
| 20260901050044 | 80 | 152 | 4.3 | 7.0 | 0.00 | 0.00 | 0.00 | 61 | 1014.7 |
| 20260901045817 | 80 | 157 | 5.2 | 6.1 | 0.00 | 0.00 | 0.00 | 61 | 1017.6 |
| 20260901045602 | 80 | 150 | 2.6 | 6.1 | 0.00 | 0.00 | 0.00 | 61 | 1014.7 |
| 20260901045333 | 80 | 162 | 3.5 | 6.1 | 0.00 | 0.00 | 0.00 | 61 | 1017.6 |
| 20260901045034 | 79 | 177 | 2.6 | 5.2 | 0.00 | 0.00 | 0.00 | 61 | 1014.8 |
| 20260901044851 | 80 | 171 | 3.5 | 5.2 | 0.00 | 0.00 | 0.00 | 61 | 1017.6 |
| 20260901044606 | 79 | 166 | 3.5 | 5.2 | 0.00 | 0.00 | 0.00 | 61 | 1014.8 |
| 20260901044330 | 79 | 151 | 3.5 | 5.2 | 0.00 | 0.00 | 0.00 | 61 | 1017.5 |
| 20260901044044 | 79 | 181 | 3.5 | 5.2 | 0.00 | 0.00 | 0.00 | 61 | 1014.7 |
| 20260901043826 | 79 | 160 | 3.5 | 5.2 | 0.00 | 0.00 | 0.00 | 61 | 1017.5 |
| 20260901043537 | 79 | 177 | 2.6 | 5.2 | 0.00 | 0.00 | 0.00 | 61 | 1014.6 |
| 20260901043324 | 79 | 173 | 2.6 | 5.2 | 0.00 | 0.00 | 0.00 | 61 | 1017.5 |
| 20260901043029 | 79 | 154 | 1.7 | 4.3 | 0.00 | 0.00 | 0.00 | 62 | 1014.5 |
| 20260901042821 | 79 | 154 | 1.7 | 2.6 | 0.00 | 0.00 | 0.00 | 61 | 1017.4 |
| 20260901042521 | 79 | 154 | 1.7 | 2.6 | 0.00 | 0.00 | 0.00 | 61 | 1014.5 |
| 20260901042339 | 79 | 154 | 2.6 | 2.6 | 0.00 | 0.00 | 0.00 | 61 | 1017.4 |
| 20260901042059 | 79 | 154 | 0.9 | 2.6 | 0.00 | 0.00 | 0.00 | 61 | 1014.5 |
| 20260901041830 | 79 | 154 | 0.9 | 1.7 | 0.00 | 0.00 | 0.00 | 61 | 1017.5 |
| 20260901041550 | 79 | 154 | 0.0 | 2.6 | 0.00 | 0.00 | 0.00 | 61 | 1014.5 |
| 20260901041329 | 79 | 154 | 0.9 | 2.6 | 0.00 | 0.00 | 0.00 | 61 | 1017.4 |
| 20260901041040 | 79 | 154 | 0.9 | 2.6 | 0.00 | 0.00 | 0.00 | 60 | 1014.5 |
| 20260901040826 | 80 | 154 | 0.9 | 1.7 | 0.00 | 0.00 | 0.00 | 60 | 1017.4 |
| 20260901040533 | 79 | 154 | 0.0 | 0.0 | 0.00 | 0.00 | 0.00 | 60 | 1014.5 |
| 20260901040323 | 80 | 154 | 0.0 | 0.0 | 0.00 | 0.00 | 0.00 | 60 | 1017.4 |
| 20260901040034 | 79 | 154 | 0.0 | 0.9 | 0.00 | 0.00 | 0.00 | 59 | 1014.3 |
| 20260901035822 | 80 | 154 | 0.0 | 1.7 | 0.00 | 0.00 | 0.00 | 59 | 1017.3 |
| 20260901035534 | 80 | 154 | 0.0 | 1.7 | 0.00 | 0.00 | 0.00 | 59 | 1014.5 |
| 20260901035320 | 80 | 154 | 0.0 | 1.7 | 0.00 | 0.00 | 0.00 | 59 | 1017.4 |
| 20260901035030 | 80 | 154 | 0.9 | 1.7 | 0.00 | 0.00 | 0.00 | 59 | 1014.5 |
| 20260901034839 | 81 | 154 | 1.7 | 1.7 | 0.00 | 0.00 | 0.00 | 60 | 1017.3 |
| 20260901034525 | 80 | 154 | 0.0 | 1.7 | 0.00 | 0.00 | 0.00 | 58 | 1014.4 |
| 20260901034330 | 81 | 154 | 0.0 | 1.7 | 0.00 | 0.00 | 0.00 | 58 | 1017.4 |
| 20260901034004 | 81 | 154 | 0.9 | 1.7 | 0.00 | 0.00 | 0.00 | 58 | 1014.5 |
| 20260901033829 | 81 | 154 | 0.9 | 1.7 | 0.00 | 0.00 | 0.00 | 57 | 1017.4 |
| 20260901033558 | 81 | 154 | 0.9 | 1.7 | 0.00 | 0.00 | 0.00 | 57 | 1014.4 |
| 20260901033329 | 81 | 154 | 1.7 | 1.7 | 0.00 | 0.00 | 0.00 | 57 | 1017.4 |
| 20260901033050 | 81 | 154 | 0.9 | 1.7 | 0.00 | 0.00 | 0.00 | 57 | 1014.4 |
| 20260901032829 | 81 | 154 | 1.7 | 1.7 | 0.00 | 0.00 | 0.00 | 57 | 1017.3 |
| 20260901032542 | 81 | 154 | 0.9 | 1.7 | 0.00 | 0.00 | 0.00 | 56 | 1014.5 |
| 20260901032329 | 82 | 154 | 1.7 | 1.7 | 0.00 | 0.00 | 0.00 | 56 | 1017.4 |
| 20260901032040 | 82 | 154 | 0.9 | 1.7 | 0.00 | 0.00 | 0.00 | 56 | 1014.4 |
| 20260901031829 | 82 | 154 | 1.7 | 2.6 | 0.00 | 0.00 | 0.00 | 56 | 1017.3 |
| 20260901031533 | 82 | 154 | 0.9 | 2.6 | 0.00 | 0.00 | 0.00 | 55 | 1014.4 |
| 20260901031329 | 82 | 154 | 0.9 | 2.6 | 0.00 | 0.00 | 0.00 | 55 | 1017.3 |
| 20260901031014 | 82 | 154 | 0.9 | 2.6 | 0.00 | 0.00 | 0.00 | 55 | 1014.4 |
| 20260901030830 | 83 | 154 | 1.7 | 2.6 | 0.00 | 0.00 | 0.00 | 55 | 1017.3 |
| 20260901030506 | 82 | 154 | 0.9 | 4.3 | 0.00 | 0.00 | 0.00 | 55 | 1014.4 |
| 20260901030330 | 83 | 154 | 1.7 | 4.3 | 0.00 | 0.00 | 0.00 | 54 | 1017.2 |
| 20260901030100 | 82 | 154 | 1.7 | 4.3 | 0.00 | 0.00 | 0.00 | 54 | 1014.2 |
| 20260901025830 | 83 | 154 | 2.6 | 3.5 | 0.00 | 0.00 | 0.00 | 54 | 1017.0 |
| 20260901025554 | 83 | 154 | 0.9 | 1.7 | 0.00 | 0.00 | 0.00 | 54 | 1014.1 |
| 20260901025329 | 83 | 154 | 1.7 | 1.7 | 0.00 | 0.00 | 0.00 | 54 | 1017.0 |
| 20260901025046 | 83 | 154 | 0.9 | 1.7 | 0.00 | 0.00 | 0.00 | 53 | 1014.0 |
| 20260901024829 | 84 | 154 | 0.9 | 1.7 | 0.00 | 0.00 | 0.00 | 53 | 1017.0 |
| 20260901024536 | 83 | 154 | 0.0 | 0.9 | 0.00 | 0.00 | 0.00 | 53 | 1013.9 |
| 20260901024329 | 84 | 154 | 0.0 | 0.9 | 0.00 | 0.00 | 0.00 | 52 | 1016.8 |
| 20260901024030 | 84 | 154 | 0.0 | 1.7 | 0.00 | 0.00 | 0.00 | 52 | 1013.8 |
| 20260901023847 | 84 | 154 | 0.0 | 1.7 | 0.00 | 0.00 | 0.00 | 52 | 1016.8 |
| 20260901023556 | 84 | 154 | 0.0 | 1.7 | 0.00 | 0.00 | 0.00 | 52 | 1013.8 |
| 20260901023325 | 85 | 154 | 0.9 | 1.7 | 0.00 | 0.00 | 0.00 | 52 | 1016.7 |
| 20260901023059 | 84 | 154 | 0.9 | 1.7 | 0.00 | 0.00 | 0.00 | 51 | 1013.8 |
| 20260901022824 | 85 | 154 | 0.9 | 1.7 | 0.00 | 0.00 | 0.00 | 51 | 1016.8 |
| 20260901022538 | 85 | 154 | 0.0 | 1.7 | 0.00 | 0.00 | 0.00 | 51 | 1013.8 |
| 20260901022323 | 85 | 154 | 0.9 | 1.7 | 0.00 | 0.00 | 0.00 | 51 | 1016.7 |
| 20260901022032 | 85 | 154 | 0.9 | 2.6 | 0.00 | 0.00 | 0.00 | 51 | 1013.7 |
| 20260901021842 | 85 | 154 | 1.7 | 2.6 | 0.00 | 0.00 | 0.00 | 51 | 1016.7 |
| 20260901021556 | 85 | 154 | 0.9 | 2.6 | 0.00 | 0.00 | 0.00 | 50 | 1013.6 |
| 20260901021319 | 86 | 154 | 0.9 | 2.6 | 0.00 | 0.00 | 0.00 | 50 | 1016.5 |
| 20260901021047 | 85 | 153 | 0.9 | 1.7 | 0.00 | 0.00 | 0.00 | 50 | 1013.6 |
| 20260901020816 | 86 | 154 | 1.7 | 1.7 | 0.00 | 0.00 | 0.00 | 50 | 1016.5 |
| 20260901020514 | 86 | 154 | 0.9 | 1.7 | 0.00 | 0.00 | 0.00 | 49 | 1013.4 |
| 20260901020315 | 86 | 154 | 0.9 | 1.7 | 0.00 | 0.00 | 0.00 | 49 | 1016.5 |
| 20260901020004 | 86 | 154 | 0.0 | 1.7 | 0.00 | 0.00 | 0.00 | 49 | 1013.4 |
| 20260901015852 | 87 | 154 | 0.9 | 1.7 | 0.00 | 0.00 | 0.00 | 49 | 1016.4 |
| 20260901015536 | 86 | 154 | 0.9 | 1.7 | 0.00 | 0.00 | 0.00 | 49 | 1013.3 |
| 20260901015332 | 87 | 154 | 0.9 | 1.7 | 0.00 | 0.00 | 0.00 | 49 | 1016.4 |
| 20260901015029 | 86 | 154 | 0.9 | 1.7 | 0.00 | 0.00 | 0.00 | 49 | 1013.3 |
| 20260901014829 | 87 | 154 | 0.9 | 1.7 | 0.00 | 0.00 | 0.00 | 49 | 1016.4 |
| 20260901014557 | 87 | 154 | 0.0 | 1.7 | 0.00 | 0.00 | 0.00 | 48 | 1013.2 |
| 20260901014350 | 87 | 154 | 0.0 | 1.7 | 0.00 | 0.00 | 0.00 | 48 | 1016.3 |
| 20260901014014 | 87 | 154 | 0.9 | 1.7 | 0.00 | 0.00 | 0.00 | 48 | 1013.2 |
| 20260901013829 | 88 | 154 | 0.9 | 1.7 | 0.00 | 0.00 | 0.00 | 48 | 1016.2 |
| 20260901013506 | 87 | 154 | 0.0 | 0.0 | 0.00 | 0.00 | 0.00 | 47 | 1013.1 |
| 20260901013329 | 88 | 154 | 0.0 | 0.0 | 0.00 | 0.00 | 0.00 | 47 | 1016.1 |
| 20260901013058 | 88 | 154 | 0.0 | 0.0 | 0.00 | 0.00 | 0.00 | 47 | 1013.1 |
| 20260901012829 | 88 | 154 | 0.0 | 0.0 | 0.00 | 0.00 | 0.00 | 47 | 1016.1 |
| 20260901012551 | 88 | 154 | 0.0 | 0.0 | 0.00 | 0.00 | 0.00 | 47 | 1013.0 |
| 20260901012329 | 89 | 153 | 0.0 | 0.0 | 0.00 | 0.00 | 0.00 | 46 | 1016.1 |
| 20260901012040 | 88 | 154 | 0.0 | 0.0 | 0.00 | 0.00 | 0.00 | 46 | 1013.1 |
| 20260901011829 | 89 | 154 | 0.0 | 0.0 | 0.00 | 0.00 | 0.00 | 46 | 1016.1 |
| 20260901011530 | 89 | 154 | 0.0 | 0.0 | 0.00 | 0.00 | 0.00 | 46 | 1013.1 |
| 20260901011342 | 89 | 154 | 0.0 | 0.0 | 0.00 | 0.00 | 0.00 | 46 | 1016.1 |
| 20260901011056 | 89 | 154 | 0.0 | 0.0 | 0.00 | 0.00 | 0.00 | 45 | 1013.1 |
| 20260901010820 | 90 | 152 | 0.0 | 0.0 | 0.00 | 0.00 | 0.00 | 45 | 1016.0 |
| 20260901010548 | 89 | 147 | 0.0 | 0.0 | 0.00 | 0.00 | 0.00 | 45 | 1013.0 |
| 20260901010339 | 90 | 147 | 0.0 | 0.0 | 0.00 | 0.00 | 0.00 | 45 | 1016.0 |
| 20260901010036 | 90 | 145 | 0.0 | 0.0 | 0.00 | 0.00 | 0.00 | 45 | 1013.0 |
| 20260901005831 | 90 | 147 | 0.0 | 0.0 | 0.00 | 0.00 | 0.00 | 44 | 1016.0 |
| 20260901005534 | 90 | 154 | 0.0 | 0.0 | 0.00 | 0.00 | 0.00 | 44 | 1013.0 |
| 20260901005328 | 91 | 139 | 0.0 | 0.0 | 0.00 | 0.00 | 0.00 | 44 | 1016.0 |
| 20260901005030 | 90 | 147 | 0.0 | 0.0 | 0.00 | 0.00 | 0.00 | 44 | 1012.9 |
| 20260901004825 | 91 | 150 | 0.0 | 0.0 | 0.00 | 0.00 | 0.00 | 43 | 1015.9 |
| 20260901004526 | 91 | 156 | 0.0 | 0.0 | 0.00 | 0.00 | 0.00 | 43 | 1012.9 |
| 20260901004322 | 91 | 149 | 0.0 | 0.0 | 0.00 | 0.00 | 0.00 | 43 | 1015.8 |
| 20260901004007 | 91 | 139 | 0.0 | 0.0 | 0.00 | 0.00 | 0.00 | 42 | 1012.9 |
| 20260901003840 | 92 | 116 | 0.0 | 0.0 | 0.00 | 0.00 | 0.00 | 42 | 1015.9 |
| 20260901003556 | 91 | 144 | 0.0 | 0.0 | 0.00 | 0.00 | 0.00 | 42 | 1013.0 |
| 20260901003332 | 92 | 156 | 0.0 | 0.0 | 0.00 | 0.00 | 0.00 | 42 | 1015.9 |
| 20260901003049 | 91 | 158 | 0.0 | 0.0 | 0.00 | 0.00 | 0.00 | 41 | 1012.9 |
| 20260901002829 | 92 | 160 | 0.0 | 0.0 | 0.00 | 0.00 | 0.00 | 41 | 1015.9 |
| 20260901002543 | 92 | 147 | 0.0 | 0.0 | 0.00 | 0.00 | 0.00 | 41 | 1012.9 |
| 20260901002326 | 92 | 160 | 0.0 | 0.0 | 0.00 | 0.00 | 0.00 | 41 | 1015.8 |
| 20260901002032 | 92 | 158 | 0.0 | 0.0 | 0.00 | 0.00 | 0.00 | 40 | 1012.8 |
| 20260901001824 | 93 | 144 | 0.0 | 0.0 | 0.00 | 0.00 | 0.00 | 40 | 1015.8 |
| 20260901001524 | 92 | 139 | 0.0 | 0.0 | 0.00 | 0.00 | 0.00 | 40 | 1012.7 |
| 20260901001321 | 93 | 119 | 0.0 | 0.0 | 0.00 | 0.00 | 0.00 | 40 | 1015.7 |
| 20260901001007 | 92 | 149 | 0.0 | 12.2 | 0.00 | 0.00 | 0.00 | 40 | 1012.7 |
| 20260901000818 | 93 | 119 | 0.0 | 12.2 | 0.00 | 0.00 | 0.00 | 40 | 1015.7 |
| 20260901000557 | 93 | 168 | 5.2 | 12.2 | 0.00 | 0.00 | 0.00 | 40 | 1012.7 |
| 20260901000317 | 93 | 152 | 6.1 | 9.6 | 0.00 | 0.00 | 0.00 | 40 | 1015.6 |
| 20260901000048 | 93 | 154 | 4.3 | 9.6 | 0.00 | 0.00 | 0.00 | 41 | 1012.6 |
| 20260831235815 | 93 | 131 | 5.2 | 9.6 | 0.00 | 0.00 | 0.00 | 40 | 1015.5 |
| 20260831235538 | 93 | 143 | 5.2 | 13.0 | 0.00 | 0.00 | 0.00 | 39 | 1012.6 |
| 20260831235332 | 94 | 135 | 7.0 | 13.0 | 0.00 | 0.00 | 0.00 | 39 | 1015.5 |
| 20260831235032 | 93 | 141 | 5.2 | 13.0 | 0.00 | 0.00 | 0.00 | 38 | 1012.5 |
| 20260831234830 | 94 | 137 | 8.7 | 13.0 | 0.00 | 0.00 | 0.00 | 38 | 1015.6 |
| 20260831234512 | 93 | 145 | 7.0 | 13.0 | 0.00 | 0.00 | 0.00 | 39 | 1012.6 |
| 20260831234349 | 94 | 129 | 8.7 | 13.0 | 0.00 | 0.00 | 0.00 | 38 | 1015.6 |
| 20260831234044 | 93 | 156 | 5.2 | 11.3 | 0.00 | 0.00 | 0.00 | 38 | 1012.6 |
| 20260831233825 | 94 | 146 | 7.0 | 10.4 | 0.00 | 0.00 | 0.00 | 38 | 1015.6 |
| 20260831233535 | 94 | 135 | 5.2 | 10.4 | 0.00 | 0.00 | 0.00 | 38 | 1012.7 |
| 20260831233322 | 94 | 141 | 6.1 | 10.4 | 0.00 | 0.00 | 0.00 | 38 | 1015.6 |
| 20260831233026 | 94 | 139 | 6.1 | 10.4 | 0.00 | 0.00 | 0.00 | 37 | 1012.6 |
| 20260831232820 | 94 | 153 | 5.2 | 10.4 | 0.00 | 0.00 | 0.00 | 37 | 1015.6 |
| 20260831232508 | 94 | 145 | 5.2 | 10.4 | 0.00 | 0.00 | 0.00 | 36 | 1012.6 |
| 20260831232317 | 94 | 136 | 5.2 | 10.4 | 0.00 | 0.00 | 0.00 | 37 | 1015.7 |
| 20260831232102 | 94 | 39 | 7.0 | 10.4 | 0.00 | 0.00 | 0.00 | 37 | 1012.7 |
| 20260831231814 | 94 | 136 | 4.3 | 10.4 | 0.00 | 0.00 | 0.00 | 37 | 1015.7 |
| 20260831231555 | 94 | 98 | 3.5 | 10.4 | 0.00 | 0.00 | 0.00 | 37 | 1012.7 |
| 20260831231331 | 94 | 166 | 6.1 | 10.4 | 0.00 | 0.00 | 0.00 | 37 | 1015.7 |
| 20260831231044 | 94 | 159 | 0.0 | 6.1 | 0.00 | 0.00 | 0.00 | 37 | 1012.7 |
| 20260831230829 | 95 | 142 | 0.0 | 6.1 | 0.00 | 0.00 | 0.00 | 38 | 1015.7 |
| 20260831230533 | 94 | 122 | 0.0 | 9.6 | 0.00 | 0.00 | 0.00 | 38 | 1012.6 |
| 20260831230325 | 95 | 125 | 3.5 | 10.4 | 0.00 | 0.00 | 0.00 | 37 | 1015.6 |
| 20260831230024 | 94 | 130 | 5.2 | 10.4 | 0.00 | 0.00 | 0.00 | 37 | 1012.7 |
| 20260831225820 | 95 | 94 | 5.2 | 10.4 | 0.00 | 0.00 | 0.00 | 37 | 1015.7 |
| 20260831225547 | 94 | 103 | 3.5 | 11.3 | 0.00 | 0.00 | 0.00 | 37 | 1012.7 |
| 20260831225318 | 95 | 137 | 5.2 | 11.3 | 0.00 | 0.00 | 0.00 | 37 | 1015.7 |
| 20260831225018 | 94 | 141 | 6.1 | 11.3 | 0.00 | 0.00 | 0.00 | 36 | 1012.8 |
| 20260831224815 | 95 | 132 | 5.2 | 10.4 | 0.00 | 0.00 | 0.00 | 36 | 1015.8 |
| 20260831224602 | 94 | 112 | 1.7 | 7.8 | 0.00 | 0.00 | 0.00 | 36 | 1012.8 |
| 20260831224354 | 95 | 145 | 0.0 | 0.0 | 0.00 | 0.00 | 0.00 | 36 | 1015.8 |
| 20260831224032 | 94 | 104 | 0.0 | 0.0 | 0.00 | 0.00 | 0.00 | 36 | 1012.9 |
| 20260831223830 | 95 | 152 | 0.0 | 0.0 | 0.00 | 0.00 | 0.00 | 35 | 1015.8 |
| 20260831223514 | 94 | 122 | 0.0 | 0.0 | 0.00 | 0.00 | 0.00 | 36 | 1012.8 |
| 20260831223328 | 95 | 140 | 0.0 | 0.0 | 0.00 | 0.00 | 0.00 | 36 | 1015.8 |
| 20260831223004 | 94 | 106 | 0.0 | 0.0 | 0.00 | 0.00 | 0.00 | 36 | 1012.9 |
| 20260831222825 | 94 | 158 | 0.0 | 0.0 | 0.00 | 0.00 | 0.00 | 36 | 1015.9 |
| 20260831222558 | 94 | 164 | 0.0 | 0.0 | 0.00 | 0.00 | 0.00 | 36 | 1012.8 |
| 20260831222322 | 94 | 174 | 0.0 | 0.0 | 0.00 | 0.00 | 0.00 | 36 | 1015.9 |
| 20260831222047 | 94 | 170 | 0.0 | 0.0 | 0.00 | 0.00 | 0.00 | 36 | 1013.0 |
| 20260831221819 | 94 | 166 | 0.0 | 0.0 | 0.00 | 0.00 | 0.00 | 36 | 1016.0 |
| 20260831221539 | 94 | 158 | 0.0 | 0.0 | 0.00 | 0.00 | 0.00 | 37 | 1013.0 |
| 20260831221316 | 94 | 193 | 0.0 | 0.0 | 0.00 | 0.00 | 0.00 | 36 | 1016.0 |
| 20260831221033 | 93 | 194 | 0.0 | 0.0 | 0.00 | 0.00 | 0.00 | 36 | 1013.0 |
| 20260831220813 | 94 | 163 | 0.0 | 0.0 | 0.00 | 0.00 | 0.00 | 36 | 1016.1 |
| 20260831220514 | 93 | 164 | 0.0 | 0.0 | 0.00 | 0.00 | 0.00 | 38 | 1013.1 |
| 20260831220331 | 94 | 161 | 0.0 | 0.0 | 0.00 | 0.00 | 0.00 | 37 | 1016.1 |
| 20260831220006 | 93 | 144 | 0.0 | 0.0 | 0.00 | 0.00 | 0.00 | 39 | 1013.2 |
| 20260831215851 | 94 | 145 | 0.0 | 0.0 | 0.00 | 0.00 | 0.00 | 39 | 1016.1 |
| 20260831215538 | 93 | 147 | 0.0 | 0.0 | 0.00 | 0.00 | 0.00 | 40 | 1013.2 |
| 20260831215330 | 94 | 170 | 0.0 | 0.0 | 0.00 | 0.00 | 0.00 | 39 | 1016.3 |
| 20260831215031 | 94 | 115 | 0.0 | 0.0 | 0.00 | 0.00 | 0.00 | 38 | 1013.3 |
| 20260831214826 | 94 | 156 | 0.0 | 0.0 | 0.00 | 0.00 | 0.00 | 37 | 1016.3 |
| 20260831214526 | 94 | 147 | 0.0 | 0.0 | 0.00 | 0.00 | 0.00 | 38 | 1013.3 |
| 20260831214322 | 94 | 133 | 0.0 | 0.0 | 0.00 | 0.00 | 0.00 | 38 | 1016.4 |
| 20260831214026 | 94 | 129 | 0.0 | 0.0 | 0.00 | 0.00 | 0.00 | 38 | 1013.4 |
| 20260831213822 | 94 | 149 | 0.0 | 0.0 | 0.00 | 0.00 | 0.00 | 38 | 1016.4 |
| 20260831213519 | 94 | 108 | 0.0 | 0.0 | 0.00 | 0.00 | 0.00 | 38 | 1013.4 |
| 20260831213319 | 94 | 149 | 0.0 | 0.0 | 0.00 | 0.00 | 0.00 | 38 | 1016.5 |
| 20260831213044 | 94 | 142 | 0.0 | 0.0 | 0.00 | 0.00 | 0.00 | 37 | 1013.4 |
| 20260831212815 | 94 | 147 | 0.0 | 0.0 | 0.00 | 0.00 | 0.00 | 38 | 1016.5 |
| 20260831212536 | 94 | 168 | 0.0 | 0.0 | 0.00 | 0.00 | 0.00 | 38 | 1013.5 |
| 20260831212313 | 94 | 159 | 0.0 | 0.0 | 0.00 | 0.00 | 0.00 | 38 | 1016.5 |
| 20260831212032 | 94 | 164 | 0.0 | 0.0 | 0.00 | 0.00 | 0.00 | 39 | 1013.5 |
| 20260831211813 | 94 | 131 | 0.0 | 0.0 | 0.00 | 0.00 | 0.00 | 39 | 1016.5 |
| 20260831211516 | 94 | 147 | 0.0 | 0.0 | 0.00 | 0.00 | 0.00 | 40 | 1013.5 |
| 20260831211329 | 94 | 164 | 0.0 | 0.0 | 0.00 | 0.00 | 0.00 | 39 | 1016.5 |
| 20260831211008 | 94 | 163 | 0.0 | 0.0 | 0.00 | 0.00 | 0.00 | 39 | 1013.5 |
| 20260831210827 | 94 | 143 | 0.0 | 0.0 | 0.00 | 0.00 | 0.00 | 40 | 1016.6 |
| 20260831210602 | 93 | 151 | 0.0 | 0.0 | 0.00 | 0.00 | 0.00 | 39 | 1013.7 |
| 20260831210325 | 94 | 106 | 0.0 | 0.0 | 0.00 | 0.00 | 0.00 | 38 | 1016.7 |
| 20260831210053 | 93 | 154 | 0.0 | 0.0 | 0.00 | 0.00 | 0.00 | 37 | 1013.7 |
| 20260831205841 | 94 | 150 | 0.0 | 0.0 | 0.00 | 0.00 | 0.00 | 37 | 1016.8 |
| 20260831205532 | 93 | 152 | 0.0 | 0.0 | 0.00 | 0.00 | 0.00 | 39 | 1013.8 |
| 20260831205338 | 93 | 179 | 0.0 | 0.0 | 0.00 | 0.00 | 0.00 | 40 | 1016.9 |
| 20260831205054 | 93 | 144 | 0.0 | 0.0 | 0.00 | 0.00 | 0.00 | 38 | 1014.0 |
| 20260831204814 | 93 | 112 | 0.0 | 0.0 | 0.00 | 0.00 | 0.00 | 39 | 1017.0 |
| 20260831204552 | 93 | 106 | 0.0 | 0.0 | 0.00 | 0.00 | 0.00 | 39 | 1014.0 |
| 20260831204352 | 93 | 159 | 0.0 | 0.0 | 0.00 | 0.00 | 0.00 | 39 | 1017.0 |
| 20260831204008 | 93 | 145 | 0.0 | 0.0 | 0.00 | 0.00 | 0.00 | 40 | 1014.1 |
| 20260831203827 | 93 | 150 | 0.0 | 0.0 | 0.00 | 0.00 | 0.00 | 40 | 1017.2 |
| 20260831203602 | 92 | 145 | 0.0 | 0.0 | 0.00 | 0.00 | 0.00 | 41 | 1014.2 |
| 20260831203326 | 92 | 147 | 0.0 | 0.0 | 0.00 | 0.00 | 0.00 | 42 | 1017.3 |
| 20260831203055 | 92 | 83 | 0.0 | 0.0 | 0.00 | 0.00 | 0.00 | 42 | 1014.3 |
| 20260831202844 | 92 | 95 | 0.0 | 0.0 | 0.00 | 0.00 | 0.00 | 42 | 1017.3 |
| 20260831202523 | 92 | 137 | 0.0 | 0.0 | 0.00 | 0.00 | 0.00 | 43 | 1014.4 |
| 20260831202319 | 92 | 135 | 0.0 | 0.0 | 0.00 | 0.00 | 0.00 | 43 | 1017.4 |
| 20260831202048 | 92 | 125 | 0.0 | 0.0 | 0.00 | 0.00 | 0.00 | 43 | 1014.4 |
| 20260831201817 | 92 | 144 | 0.0 | 0.0 | 0.00 | 0.00 | 0.00 | 43 | 1017.5 |
| 20260831201542 | 92 | 151 | 0.0 | 0.0 | 0.00 | 0.00 | 0.00 | 43 | 1014.5 |
| 20260831201318 | 92 | 149 | 0.0 | 0.0 | 0.00 | 0.00 | 0.00 | 43 | 1017.5 |
| 20260831201034 | 92 | 148 | 0.0 | 0.0 | 0.00 | 0.00 | 0.00 | 44 | 1014.5 |
| 20260831200837 | 92 | 126 | 0.0 | 0.0 | 0.00 | 0.00 | 0.00 | 44 | 1017.5 |
| 20260831200558 | 92 | 112 | 0.0 | 0.0 | 0.00 | 0.00 | 0.00 | 44 | 1014.6 |
| 20260831200354 | 93 | 157 | 0.0 | 0.0 | 0.00 | 0.00 | 0.00 | 43 | 1017.7 |
| 20260831200040 | 93 | 167 | 0.0 | 0.0 | 0.00 | 0.00 | 0.00 | 44 | 1014.6 |
| 20260831195831 | 93 | 140 | 0.0 | 0.0 | 0.00 | 0.00 | 0.00 | 44 | 1017.6 |
| 20260831195516 | 92 | 175 | 0.0 | 0.0 | 0.00 | 0.00 | 0.00 | 44 | 1014.7 |
| 20260831195330 | 93 | 181 | 0.0 | 0.0 | 0.00 | 0.00 | 0.00 | 45 | 1017.9 |
| 20260831195005 | 92 | 162 | 0.0 | 0.0 | 0.00 | 0.00 | 0.00 | 45 | 1014.9 |
| 20260831194830 | 93 | 158 | 0.0 | 0.0 | 0.00 | 0.00 | 0.00 | 44 | 1017.9 |
| 20260831194557 | 92 | 163 | 0.0 | 0.0 | 0.00 | 0.00 | 0.00 | 44 | 1014.9 |
| 20260831194329 | 93 | 133 | 0.0 | 0.0 | 0.00 | 0.00 | 0.00 | 44 | 1017.9 |
| 20260831194050 | 92 | 97 | 0.0 | 0.0 | 0.00 | 0.00 | 0.00 | 45 | 1014.9 |
| 20260831193848 | 93 | 139 | 0.0 | 0.0 | 0.00 | 0.00 | 0.00 | 45 | 1018.0 |
| 20260831193524 | 92 | 132 | 0.0 | 0.0 | 0.00 | 0.00 | 0.00 | 45 | 1015.0 |
| 20260831193325 | 93 | 120 | 0.0 | 0.0 | 0.00 | 0.00 | 0.00 | 46 | 1018.0 |
| 20260831193010 | 92 | 139 | 0.0 | 0.0 | 0.00 | 0.00 | 0.00 | 46 | 1015.0 |
| 20260831192844 | 92 | 107 | 0.0 | 0.0 | 0.00 | 0.00 | 0.00 | 46 | 1018.1 |
| 20260831192539 | 92 | 110 | 0.0 | 0.0 | 0.00 | 0.00 | 0.00 | 45 | 1015.0 |
| 20260831192321 | 93 | 127 | 0.0 | 0.0 | 0.00 | 0.00 | 0.00 | 46 | 1018.1 |
| 20260831192035 | 92 | 203 | 0.0 | 0.0 | 0.00 | 0.00 | 0.00 | 46 | 1015.1 |
| 20260831191821 | 92 | 178 | 0.0 | 0.0 | 0.00 | 0.00 | 0.00 | 46 | 1018.2 |
| 20260831191533 | 92 | 100 | 0.0 | 0.0 | 0.00 | 0.00 | 0.00 | 47 | 1015.0 |
| 20260831191319 | 92 | 142 | 0.0 | 0.0 | 0.00 | 0.00 | 0.00 | 46 | 1018.2 |
| 20260831191020 | 92 | 109 | 0.0 | 0.0 | 0.00 | 0.00 | 0.00 | 46 | 1014.9 |
| 20260831190837 | 92 | 159 | 0.0 | 0.0 | 0.00 | 0.00 | 0.00 | 45 | 1018.1 |
| 20260831190544 | 92 | 137 | 0.0 | 0.0 | 0.00 | 0.00 | 0.00 | 45 | 1015.1 |
| 20260831190350 | 93 | 89 | 0.0 | 0.0 | 0.00 | 0.00 | 0.00 | 46 | 1018.2 |
| 20260831190006 | 93 | 141 | 0.0 | 0.0 | 0.00 | 0.00 | 0.00 | 47 | 1015.1 |
| 20260831185845 | 93 | 174 | 0.0 | 0.0 | 0.00 | 0.00 | 0.00 | 47 | 1018.3 |
| 20260831185538 | 92 | 106 | 0.0 | 0.0 | 0.00 | 0.00 | 0.00 | 48 | 1015.2 |
| 20260831185342 | 92 | 143 | 0.0 | 0.0 | 0.00 | 0.00 | 0.00 | 48 | 1018.4 |
| 20260831185102 | 91 | 104 | 0.0 | 0.0 | 0.00 | 0.00 | 0.00 | 48 | 1015.3 |
| 20260831184817 | 92 | 135 | 0.0 | 0.0 | 0.00 | 0.00 | 0.00 | 48 | 1018.5 |
| 20260831184605 | 91 | 161 | 0.0 | 0.0 | 0.00 | 0.00 | 0.00 | 48 | 1015.4 |
| 20260831184314 | 92 | 143 | 0.0 | 0.0 | 0.00 | 0.00 | 0.00 | 48 | 1018.5 |
| 20260831184051 | 92 | 123 | 0.0 | 0.0 | 0.00 | 0.00 | 0.00 | 49 | 1015.4 |
| 20260831183832 | 92 | 147 | 0.0 | 0.0 | 0.00 | 0.00 | 0.00 | 49 | 1018.5 |
| 20260831183546 | 91 | 204 | 0.0 | 0.0 | 0.00 | 0.00 | 0.00 | 49 | 1015.4 |
| 20260831183329 | 92 | 160 | 0.0 | 0.0 | 0.00 | 0.00 | 0.00 | 48 | 1018.6 |
| 20260831183040 | 91 | 127 | 0.0 | 0.0 | 0.00 | 0.00 | 0.00 | 48 | 1015.6 |
| 20260831182826 | 92 | 164 | 0.0 | 0.0 | 0.00 | 0.00 | 0.00 | 48 | 1018.7 |
| 20260831182529 | 91 | 155 | 0.0 | 0.0 | 0.00 | 0.00 | 0.00 | 49 | 1015.6 |
| 20260831182324 | 92 | 137 | 0.0 | 0.0 | 0.00 | 0.00 | 0.00 | 48 | 1018.7 |
| 20260831182011 | 91 | 179 | 0.0 | 0.0 | 0.00 | 0.00 | 0.00 | 49 | 1015.7 |
| 20260831181822 | 92 | 164 | 0.0 | 0.0 | 0.00 | 0.00 | 0.00 | 51 | 1018.7 |
| 20260831181501 | 91 | 162 | 0.0 | 0.0 | 0.00 | 0.00 | 0.00 | 51 | 1015.7 |
| 20260831181320 | 92 | 137 | 0.0 | 0.0 | 0.00 | 0.00 | 0.00 | 50 | 1018.8 |
| 20260831181056 | 91 | 157 | 0.0 | 0.0 | 0.00 | 0.00 | 0.00 | 51 | 1015.8 |
| 20260831180817 | 91 | 151 | 0.0 | 0.0 | 0.00 | 0.00 | 0.00 | 52 | 1018.7 |
| 20260831180545 | 90 | 164 | 0.0 | 0.0 | 0.00 | 0.00 | 0.00 | 54 | 1015.7 |
| 20260831180315 | 90 | 182 | 0.0 | 0.0 | 0.00 | 0.00 | 0.00 | 54 | 1018.9 |
| 20260831180045 | 90 | 165 | 0.0 | 0.0 | 0.00 | 0.00 | 0.00 | 52 | 1015.9 |
| 20260831175832 | 90 | 139 | 0.0 | 0.0 | 0.00 | 0.00 | 0.00 | 52 | 1018.9 |
| 20260831175519 | 90 | 195 | 0.0 | 0.0 | 0.00 | 0.00 | 0.00 | 54 | 1016.0 |
| 20260831175330 | 90 | 162 | 0.0 | 0.0 | 0.00 | 0.00 | 0.00 | 54 | 1019.1 |
| 20260831175009 | 89 | 147 | 0.0 | 0.0 | 0.00 | 0.00 | 0.00 | 54 | 1016.1 |
| 20260831174829 | 90 | 137 | 0.0 | 0.0 | 0.00 | 0.00 | 0.00 | 54 | 1019.4 |
| 20260831174601 | 89 | 174 | 0.0 | 0.0 | 0.00 | 0.00 | 0.00 | 55 | 1016.3 |
| 20260831174325 | 90 | 161 | 0.0 | 0.0 | 0.00 | 0.00 | 0.00 | 54 | 1019.4 |
| 20260831174055 | 90 | 149 | 0.0 | 0.0 | 0.00 | 0.00 | 0.00 | 55 | 1016.3 |
| 20260831173822 | 90 | 89 | 0.0 | 0.0 | 0.00 | 0.00 | 0.00 | 55 | 1019.4 |
| 20260831173543 | 89 | 131 | 0.0 | 0.0 | 0.00 | 0.00 | 0.00 | 55 | 1016.5 |
| 20260831173319 | 89 | 128 | 0.0 | 0.0 | 0.00 | 0.00 | 0.00 | 55 | 1019.5 |
| 20260831173035 | 89 | 213 | 0.0 | 0.0 | 0.00 | 0.00 | 0.00 | 55 | 1016.5 |
| 20260831172816 | 89 | 183 | 0.0 | 0.0 | 0.00 | 0.00 | 0.00 | 55 | 1019.4 |
| 20260831172525 | 88 | 155 | 0.0 | 0.0 | 0.00 | 0.00 | 0.00 | 55 | 1016.5 |
| 20260831172333 | 89 | 154 | 0.0 | 0.0 | 0.00 | 0.00 | 0.00 | 55 | 1019.5 |
| 20260831172009 | 88 | 127 | 0.0 | 0.0 | 0.00 | 0.00 | 0.00 | 54 | 1016.6 |
| 20260831171829 | 89 | 129 | 0.0 | 0.0 | 0.00 | 0.00 | 0.00 | 54 | 1019.6 |
| 20260831171539 | 88 | 174 | 0.0 | 0.0 | 0.00 | 0.00 | 0.00 | 57 | 1016.5 |
| 20260831171324 | 89 | 152 | 0.0 | 0.0 | 0.00 | 0.00 | 0.00 | 56 | 1019.5 |
| 20260831171003 | 88 | 202 | 0.0 | 0.0 | 0.00 | 0.00 | 0.00 | 57 | 1016.6 |
| 20260831170821 | 88 | 153 | 0.0 | 0.0 | 0.00 | 0.00 | 0.00 | 57 | 1019.6 |
| 20260831170555 | 88 | 174 | 0.0 | 0.0 | 0.00 | 0.00 | 0.00 | 56 | 1016.6 |
| 20260831170318 | 88 | 131 | 0.0 | 0.0 | 0.00 | 0.00 | 0.00 | 57 | 1019.6 |
| 20260831170046 | 88 | 142 | 0.0 | 0.0 | 0.00 | 0.00 | 0.00 | 57 | 1016.6 |
| 20260831165815 | 88 | 168 | 0.0 | 0.0 | 0.00 | 0.00 | 0.00 | 58 | 1019.6 |
| 20260831165540 | 87 | 187 | 0.0 | 0.0 | 0.00 | 0.00 | 0.00 | 59 | 1016.6 |
| 20260831165332 | 88 | 193 | 0.0 | 0.0 | 0.00 | 0.00 | 0.00 | 59 | 1019.6 |
| 20260831165028 | 87 | 173 | 0.0 | 0.0 | 0.00 | 0.00 | 0.00 | 59 | 1016.7 |
| 20260831164831 | 87 | 189 | 0.0 | 0.0 | 0.00 | 0.00 | 0.00 | 59 | 1019.6 |
| 20260831164521 | 87 | 166 | 0.0 | 0.0 | 0.00 | 0.00 | 0.00 | 59 | 1016.7 |
| 20260831164330 | 87 | 168 | 0.0 | 0.0 | 0.00 | 0.00 | 0.00 | 59 | 1019.8 |
| 20260831164002 | 86 | 161 | 0.0 | 0.0 | 0.00 | 0.00 | 0.00 | 60 | 1016.8 |
| 20260831163827 | 87 | 161 | 0.0 | 0.0 | 0.00 | 0.00 | 0.00 | 60 | 1019.8 |
| 20260831163555 | 86 | 224 | 0.0 | 0.0 | 0.00 | 0.00 | 0.00 | 62 | 1016.8 |
| 20260831163325 | 87 | 176 | 0.0 | 0.0 | 0.00 | 0.00 | 0.00 | 63 | 1019.8 |
| 20260831163047 | 86 | 184 | 0.0 | 0.0 | 0.00 | 0.00 | 0.00 | 63 | 1016.7 |
| 20260831162822 | 87 | 213 | 0.0 | 0.0 | 0.00 | 0.00 | 0.00 | 63 | 1019.7 |
| 20260831162537 | 86 | 184 | 0.0 | 0.0 | 0.00 | 0.00 | 0.00 | 64 | 1016.7 |
| 20260831162321 | 86 | 211 | 0.0 | 0.0 | 0.00 | 0.00 | 0.00 | 64 | 1019.7 |
| 20260831162030 | 86 | 165 | 0.0 | 0.0 | 0.00 | 0.00 | 0.00 | 64 | 1016.8 |
| 20260831161839 | 86 | 209 | 0.0 | 0.0 | 0.00 | 0.00 | 0.00 | 64 | 1019.9 |
| 20260831161554 | 85 | 187 | 0.0 | 0.0 | 0.00 | 0.00 | 0.00 | 64 | 1016.8 |
| 20260831161315 | 86 | 156 | 0.0 | 0.0 | 0.00 | 0.00 | 0.00 | 64 | 1019.7 |
| 20260831161048 | 85 | 133 | 0.0 | 0.0 | 0.00 | 0.00 | 0.00 | 66 | 1016.7 |
| 20260831160853 | 85 | 201 | 0.0 | 0.0 | 0.00 | 0.00 | 0.00 | 66 | 1019.8 |
| 20260831160508 | 85 | 169 | 0.0 | 0.0 | 0.00 | 0.00 | 0.00 | 66 | 1016.7 |
| 20260831160330 | 85 | 107 | 0.0 | 0.0 | 0.00 | 0.00 | 0.00 | 65 | 1019.8 |
| 20260831155827 | 85 | 186 | 0.0 | 0.0 | 0.00 | 0.00 | 0.00 | 66 | 1019.7 |
| 20260831155553 | 85 | 169 | 0.0 | 0.0 | 0.00 | 0.00 | 0.00 | 66 | 1016.7 |
| 20260831155324 | 85 | 216 | 0.0 | 0.0 | 0.00 | 0.00 | 0.00 | 68 | 1019.8 |
| 20260831155041 | 84 | 177 | 0.0 | 0.0 | 0.00 | 0.00 | 0.00 | 68 | 1016.6 |
| 20260831154822 | 85 | 187 | 0.0 | 0.0 | 0.00 | 0.00 | 0.00 | 68 | 1019.8 |
| 20260831154535 | 84 | 201 | 0.0 | 0.0 | 0.00 | 0.00 | 0.00 | 68 | 1016.7 |
| 20260831154318 | 84 | 208 | 0.0 | 0.0 | 0.00 | 0.00 | 0.00 | 69 | 1019.6 |
| 20260831154028 | 84 | 135 | 0.0 | 0.0 | 0.00 | 0.00 | 0.00 | 70 | 1016.6 |
| 20260831153814 | 84 | 188 | 0.0 | 0.0 | 0.00 | 0.00 | 0.00 | 71 | 1019.6 |
| 20260831153513 | 83 | 185 | 0.0 | 0.0 | 0.00 | 0.00 | 0.00 | 71 | 1016.5 |
| 20260831153329 | 84 | 231 | 0.0 | 0.0 | 0.00 | 0.00 | 0.00 | 71 | 1019.5 |
| 20260831153005 | 83 | 173 | 0.0 | 0.0 | 0.00 | 0.00 | 0.00 | 71 | 1016.5 |
| 20260831152826 | 84 | 170 | 0.0 | 0.0 | 0.00 | 0.00 | 0.00 | 71 | 1019.4 |
| 20260831152559 | 83 | 189 | 0.0 | 0.0 | 0.00 | 0.00 | 0.00 | 71 | 1016.4 |
| 20260831152322 | 83 | 233 | 0.0 | 0.0 | 0.00 | 0.00 | 0.00 | 71 | 1019.4 |
| 20260831152054 | 83 | 218 | 0.0 | 0.0 | 0.00 | 0.00 | 0.00 | 72 | 1016.4 |
| 20260831151819 | 83 | 241 | 0.0 | 0.0 | 0.00 | 0.00 | 0.00 | 74 | 1019.4 |
| 20260831151553 | 82 | 231 | 0.0 | 0.0 | 0.00 | 0.00 | 0.00 | 74 | 1016.4 |
| 20260831151317 | 83 | 152 | 0.0 | 0.0 | 0.00 | 0.00 | 0.00 | 73 | 1019.4 |